User: anonymous   Login
Location: NJAA Observatory
(40.6819°N, 74.8979°W)
Time: 02:24:49
(UTC-04:00)
Language:

Meteor 1-28 Rocket - Orbit

View from above orbital plane
View from above orbital plane
View from above satellite
View from above satellite

Ground track
Ground track

The orbit data is extracted from the following two-line orbital elements,

1 10114U 77057B   15244.15788493  .00000987  00000-0  55272-4 0  9993
2 10114  97.2223  88.4207 0016252  87.5258 272.7836 15.15510948 84291
Epoch (UTC): 01 September 2015 03:47:21
Eccentricity: 0.0016252
inclination: 97.2223°
perigee height: 508 km
apogee height: 530 km
right ascension of ascending node: 88.4207°
argument of perigee: 87.5258°
revolutions per day: 15.15510948
mean anomaly at epoch: 272.7836°
orbit number at epoch: 8429

The dashed part of the orbit path shows where the satellite is in the earth's shadow,  

DLR